Flag for Chad Weather past 2 weeks in Ndjamena, Chad

Now
77 °F

Clear.


Feels Like: 79 °F
Forecast: 79 / 99 °F
Wind: No wind

Location: Ndjamena

Current Time: Jul 5, 2015 at 4:03:07 AM

Latest Report: Jul 5, 2015 at 3:00 AM


Visibility: 10 mi

Pressure: 29.89 "Hg

Humidity: 65%

Dew point: 64 °F

Location of NdjamenaLocation

Historic Weather in Ndjamena — Graph

°F

Ndjamena temperature yesterday

Maximum temperature yesterday: 93 °F (at 2:00 PM)
Minimum temperature yesterday: 77 °F (at 4:00 AM)
Average temperature yesterday: 84 °F

Past Weeks' High & Low Weather Summary

 TemperatureHumidityPressure
High106 °F (Jun 22, 4:00 PM)100% (Jun 27, 12:00 AM)30.07 "Hg (Jun 27, 12:00 AM)
Low72 °F (Jun 26, 12:00 AM)38% (Jun 22, 4:00 PM)29.74 "Hg (Jun 20, 4:00 PM)
Average87 °F68%29.88 "Hg
* Reported Jun 20 3:00 AM — Jul 5 3:00 AM, Ndjamena, Weather by CustomWeather, © 2015

Note: Actual official high and low records may vary slightly from our data, if they occured in-between our weather recording intervals... More about our weather records

Advertising

Ndjamena weather history for previous 24 hours

 ConditionsComfort  
Time TempWeatherWind HumidityBarometerVisibility
3:00 AM
Sun, Jul 5
77 °FClear.No wind65%29.89 "Hg10 mi
2:00 AM77 °FClear.No wind65%29.89 "Hg10 mi
1:00 AM77 °FClear.7 mph65%29.89 "Hg10 mi
12:00 AM77 °FClear.No wind69%29.89 "Hg10 mi
11:00 PM
Sat, Jul 4
79 °FClear.7 mph65%29.92 "Hg10 mi
10:00 PM79 °FClear.7 mph61%29.92 "Hg10 mi
9:00 PM79 °FClear.7 mph61%29.92 "Hg10 mi
8:00 PM81 °FPassing clouds.12 mph58%29.89 "HgN/A
7:00 PM84 °FPassing clouds.12 mph58%29.89 "HgN/A
6:00 PM88 °FPassing clouds.8 mph52%29.89 "HgN/A
5:00 PM90 °FPassing clouds.9 mph52%29.86 "HgN/A
4:00 PM93 °FScattered clouds.12 mph53%29.86 "Hg4 mi
3:00 PM93 °FScattered clouds.10 mph56%29.89 "HgN/A
2:00 PM93 °FScattered clouds.2 mph56%29.89 "HgN/A
1:00 PM91 °FScattered clouds.9 mph59%29.92 "HgN/A
12:00 PM90 °FScattered clouds.2 mph67%29.95 "HgN/A
11:00 AM88 °FScattered clouds.9 mph62%29.95 "HgN/A
10:00 AM88 °FScattered clouds.7 mph62%29.95 "HgN/A
9:00 AM86 °FSunny.1 mph70%29.95 "Hg10 mi
8:00 AM82 °FPassing clouds.7 mph84%29.95 "HgN/A
7:00 AM79 °FSunny.5 mph84%29.92 "Hg10 mi
6:00 AM77 °FSunny.5 mph89%29.89 "Hg10 mi
5:00 AM77 °FClear.5 mph83%29.89 "Hg10 mi
4:00 AM77 °FPassing clouds.7 mph83%29.89 "HgN/A
Weather by CustomWeather, © 2015

See weather overviewHow to use our weather pages